THORAD AGENA D DEB

Satellite information

Favourite Embed

Satellite Type and Status

DEBRISIN ORBIT

Key statistics

Satellite THORAD AGENA D DEB at a glance.

Uptime

20241

Days in orbit

Revolutions

≈ 13.6

Per day

Orbit

SSO

Sun Synchronous Orbit

Inclination

100.0

Latest

Satellite identification and parameters

Extended collection of information and parameters for THORAD AGENA D DEB.

Object identification

Identified? True

Debris? True

Object name: THORAD AGENA D DEB

International designator: 1970-025EP

Object number (NORAD): 4859

Object ID (CCSDS): 4859

Country: UNITED STATES OF AMERICA (US)

Current information (Y/N): Y

RCS size: SMALL

Orbital parameters

Period: 105.824 minutes

Inclination: 99.95 deg

SMA: 7411.099 km

Apoapsis: 1066.438 km

Periapsis: 999.49 km

RAAN: 338.2102 deg

Eccentricy: 0.0045167

Argument of periapsis: 289.0091 deg

Mean anomaly: 131.9776 deg

Mean motion: 13.60751576 rev/day

Mean motion (dot): 0.00000877 rev/day2

B* drag term: 0.001215411 1/REarth

Two-line elements (TLE)

Creation date: Sept. 6, 2025, 10:23 a.m.

Reference frame: TEME

Reference center: EARTH

Epoch: Sept. 6, 2025, 4:12 a.m. UTC

TLE line 0: 0 THORAD AGENA D DEB

TLE line 1: 1 04859U 70025EP 25249.17568531 .00000877 00000-0 12154-2 0 9995

TLE line 2: 2 04859 99.9500 338.2102 0045167 289.0091 131.9776 13.60751576729082

Live tracking on map

Real-time ground track for satellite THORAD AGENA D DEB.

In-orbit conjunctions

A list of the most updated potential collisions computed for object THORAD AGENA D DEB.

Target Orbit TCA Probability of collision Miss distance Type
COSMOS 1375 DEB LEO 2024-09-06 03:29:25 0.0002459008 152.0 (m) DEBRIS
FENGYUN 1C DEB SSO 2024-08-31 12:56:48 0.0002054556 46.0 (m) DEBRIS

Associated space launch

Meteorological research and development satellite

THORAD AGENA D DEB was lifted into orbit during the mission ‘Thorad SLV-2G Agena D | Nimbus 4’, on board a Thorad SLV-2G Agena D space rocket.

The launch took place on April 8, 1970, 8:17 a.m. from Space Launch Complex 2E.

For more information about the launch, click the button.

Launch to space Thorad SLV-2G Agena D | Nimbus 4
Thorad SLV-2G Agena D | Nimbus 4

Agency: N/A

Status: Launch Successful

Launch date: April 8, 1970, 8:17 a.m. UTC

Rocket: Thorad SLV-2G Agena D

Launch pad: Space Launch Complex 2E

Location: Vandenberg SFB, CA, USA

...

Latest news about this satellite

There are no fresh news available about this satellite. Check back as we update our databases every day.


Newsletter sign-up

Weekly statistics, charts and insights to help you stay on top of the space industry.